Zurück zum Katalog

STARLINK-33965

AktivKommunikationVLEO
NORAD 64755·PAYLOAD·🇺🇸 United States

Gestartet Jul 8, 2025 von Cape Canaveral Space Force Station

Loading…

Nächste Überflüge (nächste 24 Stunden)

TLE

AktuellSource: CelesTrak SupGP

Epoche: Sep 15, 2026, 02:57 UTC

1 64755C 25147A   26258.12340278 -.00023989  00000+0 -70880-3 0  2582
2 64755  53.1576  78.6665 0001122  84.9633 287.0286 15.34400979    19

Verfolge STARLINK-33965 in Echtzeit mit AllMySat

Download on the App Store